This is the latest recevied weather packets stored in our database for station/object K7KAR-2. If no packets are shown the sender has not sent any weather packets the latest 10 day(s).
| Time | Temp. | Humidity | Pressure | Rain* | Wind** | Luminosity | Snow |
|---|---|---|---|---|---|---|---|
| 1788558162 | 34.44° C | 11% | 1007.9 hPa | 0 mm | - | 662 W/m² | - |
| 1788557859 | 34.44° C | 11% | 1007.7 hPa | 0 mm | - | 673 W/m² | - |
| 1788557555 | 35° C | 11% | 1007.7 hPa | 0 mm | - | 682 W/m² | - |
| 1788557251 | 33.89° C | 13% | 1007.7 hPa | 0 mm | - | 673 W/m² | - |
| 1788556945 | 33.89° C | 13% | 1007.7 hPa | 0 mm | - | 687 W/m² | - |
| 1788556645 | 33.89° C | 12% | 1008.1 hPa | 0 mm | - | 722 W/m² | - |
| 1788556340 | 34.44° C | 13% | 1007.9 hPa | 0 mm | - | 750 W/m² | - |
| 1788556035 | 35° C | 12% | 1007.7 hPa | 0 mm | - | 753 W/m² | - |
| 1788555730 | 33.89° C | 13% | 1007.6 hPa | 0 mm | - | 778 W/m² | - |
| 1788555426 | 32.78° C | 13% | 1007.7 hPa | 0 mm | - | 804 W/m² | - |
| 1788555123 | 33.89° C | 13% | 1007.7 hPa | 0 mm | - | 691 W/m² | - |
| 1788554842 | 33.89° C | 13% | 1007.7 hPa | 0 mm | - | 808 W/m² | - |
| 1788554514 | 33.89° C | 13% | 1007.8 hPa | 0 mm | - | 831 W/m² | - |
| 1788554210 | 33.89° C | 13% | 1007.7 hPa | 0 mm | - | 853 W/m² | - |
| 1788553906 | 33.89° C | 12% | 1007.7 hPa | 0 mm | - | 846 W/m² | - |
| 1788553601 | 33.89° C | 12% | 1007.6 hPa | 0 mm | - | 832 W/m² | - |
| 1788553298 | 33.89° C | 13% | 1007.6 hPa | 0 mm | - | 834 W/m² | - |
| 1788552992 | 33.33° C | 12% | 1007.5 hPa | 0 mm | - | 826 W/m² | - |
| 1788552687 | 33.89° C | 14% | 1007.9 hPa | 0 mm | - | 828 W/m² | - |
| 1788552387 | 34.44° C | 13% | 1007.9 hPa | 0 mm | - | 839 W/m² | - |
| 1788552082 | 34.44° C | 13% | 1007.7 hPa | 0 mm | - | 837 W/m² | - |
| 1788551781 | 33.89° C | 13% | 1007.9 hPa | 0 mm | - | 840 W/m² | - |
| 1788551480 | 33.33° C | 14% | 1008.1 hPa | 0 mm | - | 843 W/m² | - |
| 1788551180 | 33.33° C | 14% | 1007.9 hPa | 0 mm | - | 846 W/m² | - |
| 1788550875 | 32.78° C | 15% | 1008.1 hPa | 0 mm | - | 846 W/m² | - |
* Rain latest hour (hover to see other rain measurements)
** Current wind speed in m/s (hover to see current wind gust speed)